This demonstration page uses our WeatherBlox Daily Observations layout. Learn more.

Left ArrowRight Arrow

36.19886, -115.1175

Hourly Observations for November 10, 2020

Temp ( °F °C ) Dew Point ( °F °C ) Humidity (%) Winds ( mph kmh ) Pressure ( in mb ) Visibility ( mi km ) Precip ( " mm )
12:53 am 00:53 Clear 45 7.2 16 -8.9 31 31 NW 10 17 30.18 1022 10 16 0.00 0.00
1:53 am 01:53 Clear 44 6.7 16 -8.9 32 32 WNW 7 11 30.18 1022 10 16 0.00 0.00
2:53 am 02:53 Clear 44 6.7 16 -8.9 32 32 NNW 10 17 30.17 1022 10 16 0.00 0.00
3:53 am 03:53 Clear 41 5 16 -8.9 36 36 WNW 7 11 30.17 1022 10 16 0.00 0.00
4:53 am 04:53 Clear 41 5 16 -8.9 36 36 Calm 30.19 1022 10 16 0.00 0.00
5:53 am 05:53 Clear 41 5 16 -8.9 36 36 NNW 7 11 30.19 1023 10 16 0.00 0.00
6:53 am 06:53 Sunny 42 5.6 15 -9.4 33 33 NW 7 11 30.21 1023 10 16 0.00 0.00
7:53 am 07:53 Sunny 45 7.2 15 -9.4 30 30 NNW 7 11 30.23 1024 10 16 0.00 0.00
8:53 am 08:53 Sunny 50 10 18 -7.8 28 28 N 7 11 30.23 1024 10 16 0.00 0.00
9:53 am 09:53 Sunny 51 10.6 19 -7.2 28 28 SE 8 13 30.22 1024 10 16 0.00 0.00
10:53 am 10:53 Sunny 53 11.7 20 -6.7 27 27 undefined N/A 30.20 1023 10 16 0.00 0.00
11:53 am 11:53 Sunny 54 12.2 19 -7.2 25 25 SE 5 7 30.16 1021 10 16 0.00 0.00
12:53 pm 12:53 Sunny 56 13.3 18 -7.8 22 22 SSE 5 7 30.14 1021 10 16 0.00 0.00
1:53 pm 13:53 Sunny 56 13.3 18 -7.8 22 22 Calm 30.12 1020 10 16 0.00 0.00
2:53 pm 14:53 Sunny 57 13.9 18 -7.8 22 22 Calm 30.10 1019 10 16 0.00 0.00
3:53 pm 15:53 Sunny 56 13.3 18 -7.8 22 22 ESE 3 6 30.11 1020 10 16 0.00 0.00
4:53 pm 16:53 Clear 54 12.2 18 -7.8 24 24 Calm 30.10 1019 10 16 0.00 0.00
5:53 pm 17:53 Clear 54 12.2 18 -7.8 24 24 Calm 30.11 1020 10 16 0.00 0.00
6:53 pm 18:53 Clear 52 11.1 19 -7.2 27 27 Calm 30.13 1020 10 16 0.00 0.00
7:53 pm 19:53 Clear 48 8.9 21 -6.1 34 34 NW 6 9 30.12 1020 10 16 0.00 0.00
8:53 pm 20:53 Clear 46 7.8 22 -5.6 38 38 W 3 6 30.12 1020 10 16 0.00 0.00
9:53 pm 21:53 Clear 46 7.8 22 -5.6 38 38 W 5 7 30.11 1020 10 16 0.00 0.00
10:53 pm 22:53 Clear 43 6.1 22 -5.6 43 43 NW 3 6 30.11 1020 10 16 0.00 0.00
11:53 pm 23:53 Clear 43 6.1 21 -6.1 42 42 NW 6 9 30.10 1019 10 16 0.00 0.00

Powered by AerisWeather